sat.trackr.live / text

‹ back to catalog

STARLINK-35368

NORAD 65830 · 2025-221H

PAYLOAD ACTIVE UNKNOWN

§ Identity

Operator
Country
US
Launch date
2025-09-29
Launch site
AFWTR
Launch vehicle
Mass (kg)
RCS (m²)

Purposes: comms

External: N2YO · Heavens-Above · Gunter

§ Orbital elements

Epoch: 2026-05-25T03:35:29.251104Z

Period
94.10 min
Inclination
53.1571°
Eccentricity
0.0001144
Mean motion
15.30208261 rev/d
Perigee alt
474.4 km
Apogee alt
476.0 km
Semi-major
6,853.3 km
B*
3.6420e-4
RAAN
93.6294°
Arg perigee
86.3392°
Mean anomaly
273.7740°
Rev number
3,774

§ Raw data

STARLINK-353681 65830U 25221H   26145.14964411  .00010445  00000+0  36420-3 0  99932 65830  53.1571  93.6294 0001144  86.3392 273.7740 15.30208261 37749

JSON: /api/v1/satellites/65830 · /tle

For live sub-satellite position, see the globe view (requires WebGL).

§ Visibility from observer

Set your observer location to see the next 7 days of passes ≥ 10°. The values pass through the URL so the page stays shareable.

No JS? Fill the form by hand. The geolocation button needs JavaScript.